Regional Weather Roundup
Issued by NWS

Home | Current Version | Previous Version | Graphics & Text | Print | Product List | Glossary On
Versions: 1 2 3 4 5 6 7 8 9 10 11 12 13 14 15 16 17 18 19 20 21 22 23 24 25 26 27 28 29 30 31 32 33 34 35 36 37 38 39 40 41 42 43 44 45 46 47 48 49 50
000
ASUS43 KMPX 061110
RWRMN
WEATHER ROUNDUP FOR MINNESOTA
NATIONAL WEATHER SERVICE TWIN CITIES/CHANHASSEN MN
500 AM CST SAT FEB 06 2016


NOTE: "FAIR" INDICATES FEW OR NO CLOUDS BELOW 12,000 FEET WITH NO
SIGNIFICANT WEATHER AND/OR OBSTRUCTIONS TO VISIBILITY. N/A MEANS
CURRENT SKY AND/OR WEATHER CONDITIONS ARE NOT AVAILABLE.

MNZ060>063-068>070-061200-
   Twin Cities Metro

CITY           SKY/WX    TMP DP  RH WIND       PRES   REMARKS
TWIN CITIES    CLOUDY    25  21  85 SW5       30.14F WCI  19
ST PAUL        CLOUDY    25  21  85 SW5       30.16F WCI  19
CRYSTAL        CLOUDY    26  21  81 SW6       30.12F WCI  19
BLAINE         CLOUDY    27  23  86 SW5       30.12F WCI  21
LAKEVILLE      CLOUDY    25  21  86 W3        30.15F
EDEN PRAIRIE   CLOUDY    26  21  81 SW6       30.13F WCI  19
SOUTH ST PAUL  CLOUDY    26  22  83 CALM      30.15S
LAKE ELMO      CLOUDY    27  23  86 SW6       30.15S WCI  20
$$
MNZ001>005-007-008-013>017-022>024-027-028-061200-
   Northwest Minnesota

CITY           SKY/WX    TMP DP  RH WIND       PRES   REMARKS
BEMIDJI        PTCLDY    19  18  95 S5        29.97F WCI  13
HALLOCK        CLOUDY    21  19  93 S10       29.91F WCI  10
ROSEAU         CLOUDY    21  16  79 S10       29.92F WCI  10
WARROAD        CLOUDY    19  16  86 CALM      29.94F
THIEF RVR FALL CLOUDY    23  19  86 S10       29.95F WCI  12
CROOKSTON      CLOUDY    21  19  93 S9        29.95F WCI  11
FOSSTON        CLOUDY    21  19  93 S10G18    29.96F WCI  10
DETROIT LAKES  CLOUDY    23  21  93 SE5       29.99F WCI  17
MOORHEAD       PTCLDY    21  18  86 S14       29.97F WCI   8
PARK RAPIDS    CLOUDY    20  17  88 S7        29.99F WCI  11
MAHNOMEN       CLOUDY    23  21  94 S13       29.96F WCI  11
$$
MNZ006-009>011-018-025>026-061200-
   North Central Minnesota

CITY           SKY/WX    TMP DP  RH WIND       PRES   REMARKS
BAUDETTE       CLOUDY    17  13  84 S6        29.95F WCI   9
FLAG ISLAND    MOCLDY    18  16  93 SE7       29.93F FOG     WCI   8
INTL FALLS     CLOUDY    18  14  84 SW3       29.97F
WASKISH        CLOUDY    19  18  93 CALM      29.97F
LONGVILLE      CLOUDY    19  18  93 S5        30.02F WCI  13
GRAND RAPIDS   CLOUDY    19  16  86 S6        30.01F WCI  11
CRANE LAKE     CLOUDY    16  12  86 S2        30.02F
ORR            CLOUDY    16  12  86 CALM      29.97S
COOK           CLOUDY    16  16 100 SW1       30.00F
WALKER         CLOUDY    20  18  91 S5        29.99F WCI  13
$$
MNZ012-019>021-037-061200-
   Northeast Minnesota

CITY           SKY/WX    TMP DP  RH WIND       PRES   REMARKS
DULUTH         PTCLDY    17  14  88 W8        30.02S WCI   7
ELY            MOCLDY    18  16  93 CALM      29.99S
HIBBING        MOCLDY    11   9  92 CALM      30.01S
EVELETH        PTCLDY    16  14  93 CALM      30.02S FOG
DULUTH HARBOR  MOCLDY    23  18  80 SW10      30.08S WCI  12
TWO HARBORS    MOCLDY    18  12  79 SW3       30.01S
SILVER BAY     CLOUDY    18  14  86 CALM      30.00S
GRAND MARAIS     N/A     26  17  68 W3        30.02S
G MARAIS ARPRT CLOUDY    18  12  79 W7        29.95R WCI   8
$$
MNZ029>031-032-039>041-046>048-054>057-064-061200-
   West Central Minnesota

CITY           SKY/WX    TMP DP  RH WIND       PRES   REMARKS
FERGUS FALLS   CLOUDY    21  19  93 S6        30.04F WCI  14
WHEATON        CLOUDY    27  23  86 S7        30.04F WCI  19
MORRIS         CLOUDY    19  18  93 S6        30.04F WCI  11
ALEXANDRIA     CLOUDY    22  19  89 S10       30.04F WCI  11
ELBOW LAKE     FAIR      19  19  96 S7        30.03F WCI  10
WADENA         CLOUDY    19  19 100 S3        30.01F
GLENWOOD       CLOUDY    19  18  93 S5        30.05F WCI  13
APPLETON       CLOUDY    21  19  93 S7        30.06F WCI  13
BENSON         CLOUDY    19  16  86 CALM      30.06F
ORTONVILLE     CLOUDY    21  18  86 S6        30.04F WCI  14
MADISON        PTCLDY    21  21 100 SW8       30.07F WCI  12
WILLMAR        FAIR      19  19 100 S5        30.10F WCI  13
$$
MNZ033>034-036-042>043-049>051-058-059-061200-
   Central Minnesota

CITY           SKY/WX    TMP DP  RH WIND       PRES   REMARKS
ST CLOUD       CLOUDY    23  20  88 S6        30.09F WCI  16
SAUK CENTRE    FAIR      19  18  95 SE6       30.06F WCI  11
PAYNESVILLE    CLOUDY    21  21 100 CALM      30.08F FOG
AITKIN         PTCLDY    21  18  86 S3        30.04S
PINE RIVER     MOCLDY    19  18  93 SE5       30.06F FOG     WCI  13
BRAINERD       CLOUDY    20  18  92 S7        30.05F FOG     WCI  11
STAPLES        CLOUDY    19  19 100 S5        30.03F FOG     WCI  13
LONG PRAIRIE   FAIR      21  19  93 SE6       30.05F WCI  14
LITTLE FALLS   CLOUDY    25  23  93 S6        30.07F FOG     WCI  18
LITCHFIELD     CLOUDY    21  21 100 CALM      30.11F FOG
BUFFALO        CLOUDY    25  22  89 CALM      30.13F
MAPLE LAKE     CLOUDY    25  23  94 S3        30.12F
$$
MNZ037-044-045-052-053-061200-
   East Central Minnesota

CITY           SKY/WX    TMP DP  RH WIND       PRES   REMARKS
PRINCETON      CLOUDY    25  21  86 S3        30.10F
MORA           CLOUDY    25  21  86 SW6       30.11F WCI  18
CAMBRIDGE      CLOUDY    27  18  69 CALM      30.10F
RUSH CITY      CLOUDY    24  20  86 SW7       30.11S WCI  16
MOOSE LAKE     CLOUDY    21  18  86 SW6       30.05S WCI  14
HINCKLEY       CLOUDY    23  21  93 SW7       30.09S WCI  15
CLOQUET        CLOUDY    19  16  86 SW5       30.03S WCI  13
MCGREGOR       CLOUDY    21  19  93 S5        30.06R WCI  15
$$
MNZ071>073-080-081-089-090-097-098-061200-
   Southwest Minnesota

CITY           SKY/WX    TMP DP  RH WIND       PRES   REMARKS
MONTEVIDEO     CLOUDY    19  18  93 SW7       30.10F WCI  10
GRANITE FALLS  CLOUDY    22  20  93 S9        30.12F WCI  12
CANBY          CLOUDY    32  27  80 SW13G18   30.08F WCI  22
MARSHALL         N/A    N/A N/A N/A MISG        N/A
REDWOOD FALLS  PTCLDY    17  15  92 S5        30.13S WCI  10
OLIVIA         CLOUDY    21  18  86 S5        30.11F WCI  15
PIPESTONE        N/A     19  12  73 CALM      30.12S
WINDOM         CLOUDY    23  21  93 SW7       30.14S FOG     WCI  15
WORTHINGTON    CLOUDY    21  19  93 SW9       30.15S VSB 1/2 WCI  11
JACKSON        FOG       28  27  93 SW8       30.15S VSB 3/4 WCI  20
TRACY          PTCLDY    23  22  95 SW14      30.11F WCI  10
SLAYTON        MOCLDY    20  20 100 S3        30.12F FOG
$$
MNZ065>067-074>077-082>085-091>093-061200-
   South Central Minnesota

CITY           SKY/WX    TMP DP  RH WIND       PRES   REMARKS
MANKATO        CLOUDY    25  21  86 S7        30.15F WCI  17
NEW ULM        PTCLDY    18  16  93 S6        30.15S WCI   9
ST JAMES       FOG       19  19 100 S6        30.17S VSB 3/4 WCI  11
FAIRMONT       CLOUDY    23  19  86 SW9       30.15F VSB 3/4 WCI  13
GLENCOE        PTCLDY    24  23  97 S6        30.13F WCI  17
FARIBAULT      CLOUDY    25  21  86 SW8       30.16F WCI  16
OWATONNA       CLOUDY    25  21  86 SW9       30.15F WCI  15
WASECA         CLOUDY    27  23  86 SW8       30.18S WCI  18
ALBERT LEA     CLOUDY    27  25  93 SW5       30.16F FOG     WCI  21
$$
MNZ078>079-086>088-094>096-061200-
   Southeast Minnesota

CITY           SKY/WX    TMP DP  RH WIND       PRES   REMARKS
ROCHESTER      CLOUDY    26  23  88 W16       30.15S WCI  14
RED WING       CLOUDY    28  21  74 W6        30.15F WCI  22
STANTON        CLOUDY    27  22  83 W5        30.15F WCI  22
DODGE CENTER   CLOUDY    25  23  93 W12       30.15S WCI  14
WINONA         CLOUDY    30  27  86 W3        30.19S
AUSTIN         CLOUDY    27  25  93 W9        30.17S FOG     WCI  17
PRESTON        CLOUDY    25  24  95 W10       30.17S FOG     WCI  15
$$
ABBREVIATIONS USED IN REMARKS
   TC - TEMPERATURES IN CELSIUS
  WCI - WIND CHILL INDEX
   HX - HEAT INDEX
  VSB - VISIBILITY
$$



USA.gov is the U.S. government's official web portal to all federal, state and local government web resources and services.